Location: Unspecified
(22.6800°N, 112.2000°E)
Time: 07:21:10
(UTC+08:00)

X-37B - Pass Details

Date: 23 June 2021
Orbit: 383 x 392 km, 45.0° (Epoch: 01 July)

Event Time Altitude Azimuth Distance (km) Brightness Sun altitude
Rises 20:43:04 0° 255° (WSW) 2,246 5.0 -17.5°
Reaches altitude 10° 20:45:27 10° 272° (W) 1,394 4.2 -17.9°
Maximum altitude 20:47:54 21° 324° (NW) 932 3.4 -18.4°
Drops below altitude 10° 20:50:21 10° 15° (NNE) 1,395 3.6 -18.8°
Sets 20:52:44 0° 33° (NNE) 2,248 4.5 -19.3°
